Date,TemperatureHighF,TemperatureAvgF,TemperatureLowF,DewpointHighF,DewpointAvgF,DewpointLowF,HumidityHigh,HumidityAvg,HumidityLow,PressureMaxIn,PressureMinIn,WindSpeedMaxMPH,WindSpeedAvgMPH,GustSpeedMaxMPH,PrecipitationSumIn
2013-3-1,67.0,45.8,25.4,19.3,13.0,6.1,61,32,12,30.39,30.27,7,3,10,0.00
2013-3-2,78.0,54.1,31.5,26.6,17.4,-4.1,66,31,5,30.37,30.15,8,3,10,0.00
2013-3-3,75.5,57.8,38.3,23.0,11.6,-12.6,49,22,3,30.15,29.89,13,6,18,0.00
2013-3-4,67.5,58.3,39.0,32.7,19.6,3.4,57,24,11,30.02,29.78,17,9,25,0.00
2013-3-5,70.7,54.4,34.1,28.4,24.9,19.6,73,37,15,30.13,30.00,12,4,16,0.00
2013-3-6,75.6,61.0,48.3,30.6,23.0,9.2,45,25,9,30.02,29.83,15,5,20,0.00
2013-3-7,70.0,57.4,44.5,28.1,23.1,14.6,52,29,12,29.91,29.83,12,6,18,0.00
2013-3-8,57.0,49.0,35.7,44.8,35.7,23.7,91,62,34,29.91,29.71,22,11,30,0.17
2013-3-9,46.1,39.8,34.2,35.0,31.4,26.8,90,72,51,30.12,29.90,14,8,21,0.09
2013-3-10,56.3,44.9,34.3,35.2,29.6,21.9,89,59,27,30.18,30.09,10,4,14,0.00
2013-3-11,69.4,49.3,29.8,32.6,23.8,15.3,83,43,14,30.22,30.03,9,3,13,0.00
2013-3-12,73.9,53.2,31.8,30.3,22.1,11.3,73,36,10,30.12,30.01,7,3,10,0.00
2013-3-13,79.2,60.6,38.8,26.5,18.4,9.3,57,25,7,30.16,30.01,7,2,10,0.00
2013-3-14,82.5,61.9,41.0,27.0,14.8,-7.0,49,22,4,30.12,29.97,8,3,11,0.00
2013-3-15,84.2,64.2,43.2,22.2,11.5,-14.3,38,18,2,30.03,29.86,13,6,17,0.00
2013-3-16,79.4,65.9,50.1,22.4,11.6,-4.3,27,14,4,29.89,29.68,17,8,27,0.00
2013-3-17,74.3,62.3,50.5,23.7,15.7,6.3,32,17,11,29.88,29.72,16,8,27,0.00
2013-3-18,74.5,61.6,46.1,33.8,22.2,13.4,47,25,10,29.93,29.84,10,6,16,0.00
2013-3-19,71.5,59.9,47.9,31.5,26.0,16.8,50,29,14,30.01,29.86,14,6,19,0.00
2013-3-20,76.9,59.5,42.4,30.2,26.6,17.6,57,32,11,30.04,29.85,13,5,17,0.00
2013-3-21,73.7,61.5,50.0,29.9,23.2,11.5,41,25,10,29.84,29.67,14,6,20,0.00
2013-3-22,71.3,61.9,51.8,31.6,25.3,13.5,39,26,13,29.75,29.60,17,9,26,0.00
2013-3-23,66.8,55.8,44.6,29.0,18.2,6.2,46,25,10,29.95,29.75,17,7,24,0.00
2013-3-24,68.5,54.0,37.5,10.0,4.7,-1.6,27,15,7,29.99,29.84,14,6,17,0.00
2013-3-25,71.1,55.1,35.7,16.0,10.6,3.3,34,18,9,30.01,29.90,7,4,12,0.00
2013-3-26,77.4,60.0,39.9,18.8,13.2,4.9,40,19,7,29.99,29.83,11,4,18,0.00
2013-3-27,76.3,62.4,46.9,27.5,19.5,9.3,34,20,9,29.95,29.84,12,6,18,0.00
2013-3-28,60.2,51.7,43.8,25.7,23.4,20.8,48,34,23,29.95,29.92,7,3,8,0.00
2013-3-29,77.8,63.5,46.0,28.8,22.0,15.2,44,22,10,30.04,29.92,8,4,0,0.00
2013-3-30,75.4,61.9,50.3,25.8,18.6,11.9,37,20,10,30.00,29.87,11,4,15,0.00
2013-3-31,77.8,61.1,43.0,28.9,24.1,18.0,51,27,12,29.99,29.85,11,4,17,0.00